This is the latest recevied weather packets stored in our database for station/object N5CSU. If no packets are shown the sender has not sent any weather packets the latest 10 day(s).
| Time | Temp. | Humidity | Pressure | Rain* | Wind** | Luminosity | Snow |
|---|---|---|---|---|---|---|---|
| 1777307501 | 28.89° C | 76% | 1008.8 hPa | 0 mm | - | 96 W/m² | - |
| 1777307198 | 28.89° C | 75% | 1008.8 hPa | 0 mm | - | 155 W/m² | - |
| 1777306895 | 28.89° C | 76% | 1008.9 hPa | 0 mm | - | 32 W/m² | - |
| 1777306592 | 28.33° C | 78% | 1008.8 hPa | 0 mm | - | 75 W/m² | - |
| 1777306287 | 28.33° C | 78% | 1008.8 hPa | 0 mm | - | 22 W/m² | - |
| 1777305983 | 28.33° C | 79% | 1008.5 hPa | 0 mm | - | 67 W/m² | - |
| 1777305680 | 27.78° C | 79% | 1008.8 hPa | 0 mm | - | 35 W/m² | - |
| 1777305375 | 27.78° C | 80% | 1008.7 hPa | 0 mm | - | 38 W/m² | - |
| 1777305070 | 27.78° C | 81% | 1008.7 hPa | 0 mm | - | 46 W/m² | - |
| 1777304764 | 27.78° C | 80% | 1008.8 hPa | 0 mm | - | 31 W/m² | - |
| 1777304462 | 27.22° C | 80% | 1008.7 hPa | 0 mm | - | 41 W/m² | - |
| 1777304160 | 27.22° C | 82% | 1008.5 hPa | 0 mm | - | 32 W/m² | - |
| 1777303856 | 27.22° C | 82% | 1008.5 hPa | 0 mm | - | 13 W/m² | - |
| 1777303554 | 27.22° C | 81% | 1008.7 hPa | 0 mm | - | 29 W/m² | - |
| 1777303251 | 27.22° C | 82% | 1008.3 hPa | 0 mm | - | 28 W/m² | - |
| 1777302949 | 27.22° C | 82% | 1008.3 hPa | 0 mm | - | 27 W/m² | - |
| 1777302645 | 26.67° C | 83% | 1008.3 hPa | 0 mm | - | 26 W/m² | - |
| 1777302344 | 26.67° C | 83% | 1008.2 hPa | 0 mm | - | 26 W/m² | - |
| 1777302041 | 26.67° C | 83% | 1008.3 hPa | 0 mm | - | 25 W/m² | - |
| 1777301739 | 26.67° C | 84% | 1008.3 hPa | 0 mm | - | 24 W/m² | - |
| 1777301436 | 26.11° C | 84% | 1008.1 hPa | 0 mm | - | 23 W/m² | - |
| 1777301133 | 26.11° C | 85% | 1008.2 hPa | 0 mm | - | 24 W/m² | - |
| 1777300830 | 26.11° C | 84% | 1008 hPa | 0 mm | - | 20 W/m² | - |
| 1777300528 | 26.11° C | 85% | 1008.1 hPa | 0 mm | - | 19 W/m² | - |
| 1777300225 | 25.56° C | 85% | 1008.1 hPa | 0 mm | - | 20 W/m² | - |
* Rain latest hour (hover to see other rain measurements)
** Current wind speed in m/s (hover to see current wind gust speed)